| time (UTC) | temp C | wind direction | speed KPH | gust KPH | rain 1hr cm | rain 24hr cm | rain mn cm | humidity % | barometer mb |
| 20260505122903 | 18 | 212 | 4.8 | 11.3 | 0.00 | 0.00 | 0.00 | 63 | 1011.4 |
| 20260505122404 | 18 | 252 | 4.8 | 12.9 | 0.00 | 0.00 | 0.00 | 63 | 1011.3 |
| 20260505121404 | 17 | 241 | 4.8 | 9.7 | 0.00 | 0.00 | 0.00 | 64 | 1011.4 |
| 20260505120404 | 17 | 213 | 3.2 | 9.7 | 0.00 | 0.00 | 0.00 | 66 | 1011.3 |
| 20260505115403 | 17 | 278 | 1.6 | 4.8 | 0.00 | 0.00 | 0.00 | 68 | 1011.4 |
| 20260505114906 | 17 | 227 | 3.2 | 9.7 | 0.00 | 0.00 | 0.00 | 68 | 1011.3 |
| 20260505114404 | 17 | 236 | 1.6 | 9.7 | 0.00 | 0.00 | 0.00 | 69 | 1011.4 |
| 20260505113904 | 16 | 213 | 3.2 | 8.0 | 0.00 | 0.00 | 0.00 | 69 | 1011.4 |
| 20260505113404 | 16 | 209 | 4.8 | 11.3 | 0.00 | 0.00 | 0.00 | 69 | 1011.3 |
| 20260505112904 | 16 | 173 | 3.2 | 4.8 | 0.00 | 0.00 | 0.00 | 71 | 1011.3 |
| 20260505112403 | 16 | 237 | 4.8 | 12.9 | 0.00 | 0.00 | 0.00 | 71 | 1011.1 |
| 20260505111905 | 16 | 227 | 1.6 | 4.8 | 0.00 | 0.00 | 0.00 | 72 | 1011.1 |
| 20260505111405 | 15 | 212 | 1.6 | 4.8 | 0.00 | 0.00 | 0.00 | 74 | 1011.1 |
| 20260505110406 | 14 | 349 | 0.0 | 3.2 | 0.00 | 0.00 | 0.00 | 78 | 1011.1 |
| 20260505101903 | 13 | 294 | 0.0 | 1.6 | 0.00 | 0.00 | 0.00 | 81 | 1011.0 |
| 20260505101403 | 12 | 287 | 0.0 | 3.2 | 0.00 | 0.00 | 0.00 | 81 | 1010.9 |
| 20260505100904 | 12 | 248 | 1.6 | 4.8 | 0.00 | 0.00 | 0.00 | 84 | 1010.9 |
| 20260505095903 | 12 | 55 | 0.0 | 3.2 | 0.00 | 0.00 | 0.00 | 83 | 1010.7 |
| 20260505095404 | 12 | 63 | 0.0 | 1.6 | 0.00 | 0.00 | 0.00 | 83 | 1010.7 |
| 20260505094904 | 12 | 54 | 0.0 | 1.6 | 0.00 | 0.00 | 0.00 | 82 | 1010.6 |
| 20260505093904 | 12 | 298 | 0.0 | 1.6 | 0.00 | 0.00 | 0.00 | 82 | 1010.6 |
| 20260505093403 | 12 | 43 | 0.0 | 1.6 | 0.00 | 0.00 | 0.00 | 82 | 1010.6 |
| 20260505092404 | 13 | 85 | 0.0 | 4.8 | 0.00 | 0.00 | 0.00 | 80 | 1010.5 |
| 20260505091903 | 13 | 256 | 0.0 | 1.6 | 0.00 | 0.00 | 0.00 | 81 | 1010.5 |
| 20260505091404 | 13 | 255 | 0.0 | 0.0 | 0.00 | 0.00 | 0.00 | 80 | 1010.5 |
| 20260505090904 | 13 | 307 | 0.0 | 3.2 | 0.00 | 0.00 | 0.00 | 80 | 1010.4 |
| 20260505090404 | 13 | 227 | 0.0 | 3.2 | 0.00 | 0.00 | 0.00 | 79 | 1010.4 |
| 20260505085404 | 13 | 170 | 0.0 | 0.0 | 0.00 | 0.00 | 0.00 | 77 | 1010.4 |
| 20260505084905 | 13 | 175 | 0.0 | 3.2 | 0.00 | 0.00 | 0.00 | 77 | 1010.4 |
| 20260505084403 | 14 | 223 | 0.0 | 3.2 | 0.00 | 0.00 | 0.00 | 76 | 1010.4 |
| 20260505083905 | 14 | 225 | 0.0 | 3.2 | 0.00 | 0.00 | 0.00 | 76 | 1010.4 |
| 20260505083405 | 15 | 176 | 0.0 | 3.2 | 0.00 | 0.00 | 0.00 | 74 | 1010.5 |
| 20260505082905 | 15 | 202 | 0.0 | 3.2 | 0.00 | 0.00 | 0.00 | 73 | 1010.4 |
| 20260505082405 | 15 | 232 | 0.0 | 3.2 | 0.00 | 0.00 | 0.00 | 72 | 1010.4 |
| 20260505081906 | 15 | 268 | 0.0 | 0.0 | 0.00 | 0.00 | 0.00 | 71 | 1010.4 |
| 20260505081405 | 15 | 268 | 1.6 | 4.8 | 0.00 | 0.00 | 0.00 | 71 | 1010.4 |
| 20260505080405 | 15 | 239 | 1.6 | 3.2 | 0.00 | 0.00 | 0.00 | 70 | 1010.5 |
| 20260505075905 | 16 | 189 | 0.0 | 3.2 | 0.00 | 0.00 | 0.00 | 70 | 1010.6 |
| 20260505075405 | 16 | 186 | 1.6 | 4.8 | 0.00 | 0.00 | 0.00 | 69 | 1010.6 |
| 20260505074405 | 16 | 226 | 3.2 | 8.0 | 0.00 | 0.00 | 0.00 | 69 | 1010.6 |
| 20260505073905 | 16 | 235 | 1.6 | 4.8 | 0.00 | 0.00 | 0.00 | 69 | 1010.6 |
| 20260505073405 | 16 | 260 | 1.6 | 4.8 | 0.00 | 0.00 | 0.00 | 69 | 1010.6 |
| 20260505072905 | 16 | 208 | 1.6 | 8.0 | 0.00 | 0.00 | 0.00 | 68 | 1010.6 |
| 20260505072405 | 16 | 188 | 0.0 | 4.8 | 0.00 | 0.00 | 0.00 | 68 | 1010.5 |
| 20260505071905 | 16 | 219 | 1.6 | 4.8 | 0.00 | 0.00 | 0.00 | 68 | 1010.4 |
| 20260505071407 | 16 | 217 | 3.2 | 8.0 | 0.00 | 0.00 | 0.00 | 67 | 1010.4 |
| 20260505070905 | 16 | 209 | 3.2 | 9.7 | 0.00 | 0.00 | 0.00 | 67 | 1010.4 |
| 20260505070405 | 16 | 221 | 1.6 | 9.7 | 0.00 | 0.00 | 0.00 | 67 | 1010.4 |
| 20260505065905 | 16 | 223 | 1.6 | 4.8 | 0.00 | 0.00 | 0.00 | 67 | 1010.3 |
| 20260505064905 | 16 | 284 | 1.6 | 9.7 | 0.00 | 0.00 | 0.00 | 66 | 1010.3 |
| 20260505064405 | 16 | 236 | 1.6 | 4.8 | 0.00 | 0.00 | 0.00 | 65 | 1010.3 |
| 20260505063405 | 16 | 230 | 3.2 | 14.5 | 0.00 | 0.00 | 0.00 | 65 | 1010.2 |
| 20260505062905 | 16 | 214 | 3.2 | 9.7 | 0.00 | 0.00 | 0.00 | 65 | 1010.2 |
| 20260505062406 | 16 | 214 | 3.2 | 9.7 | 0.00 | 0.00 | 0.00 | 65 | 1010.2 |
| 20260505061905 | 16 | 210 | 3.2 | 9.7 | 0.00 | 0.00 | 0.00 | 64 | 1010.3 |
| 20260505060405 | 16 | 201 | 3.2 | 9.7 | 0.00 | 0.00 | 0.00 | 64 | 1010.3 |
| 20260505055405 | 16 | 178 | 3.2 | 11.3 | 0.00 | 0.00 | 0.00 | 63 | 1010.3 |
| 20260505054905 | 16 | 204 | 4.8 | 14.5 | 0.00 | 0.00 | 0.00 | 63 | 1010.3 |
| 20260505054406 | 16 | 212 | 4.8 | 12.9 | 0.00 | 0.00 | 0.00 | 64 | 1010.2 |
| 20260505053905 | 16 | 219 | 4.8 | 11.3 | 0.00 | 0.00 | 0.00 | 64 | 1010.3 |
| 20260505053405 | 16 | 234 | 4.8 | 12.9 | 0.00 | 0.00 | 0.00 | 64 | 1010.3 |
| 20260505052906 | 16 | 255 | 1.6 | 8.0 | 0.00 | 0.00 | 0.00 | 64 | 1010.3 |
| 20260505052404 | 16 | 277 | 3.2 | 9.7 | 0.00 | 0.00 | 0.00 | 64 | 1010.4 |
| 20260505051905 | 16 | 181 | 3.2 | 8.0 | 0.00 | 0.00 | 0.00 | 64 | 1010.4 |
| 20260505051405 | 16 | 245 | 3.2 | 9.7 | 0.00 | 0.00 | 0.00 | 64 | 1010.4 |
| 20260505041405 | 16 | 174 | 3.2 | 11.3 | 0.00 | 0.00 | 0.00 | 62 | 1010.4 |
| 20260505040905 | 16 | 192 | 1.6 | 4.8 | 0.00 | 0.00 | 0.00 | 61 | 1010.3 |
| 20260505035904 | 16 | 178 | 3.2 | 8.0 | 0.00 | 0.00 | 0.00 | 59 | 1010.3 |
| 20260505035405 | 16 | 171 | 1.6 | 9.7 | 0.00 | 0.00 | 0.00 | 59 | 1010.3 |
| 20260505034907 | 16 | 214 | 3.2 | 4.8 | 0.00 | 0.00 | 0.00 | 57 | 1010.4 |
| 20260505034405 | 16 | 187 | 1.6 | 9.7 | 0.00 | 0.00 | 0.00 | 56 | 1010.4 |
| 20260505033906 | 16 | 193 | 3.2 | 9.7 | 0.00 | 0.00 | 0.00 | 56 | 1010.4 |
| 20260505033404 | 16 | 189 | 1.6 | 4.8 | 0.00 | 0.00 | 0.00 | 56 | 1010.4 |
| 20260505032405 | 16 | 171 | 1.6 | 4.8 | 0.00 | 0.00 | 0.00 | 55 | 1010.4 |
| 20260505031906 | 16 | 187 | 3.2 | 9.7 | 0.00 | 0.00 | 0.00 | 54 | 1010.4 |
| 20260505030905 | 17 | 163 | 1.6 | 8.0 | 0.00 | 0.00 | 0.00 | 54 | 1010.4 |
| 20260505030406 | 17 | 174 | 3.2 | 4.8 | 0.00 | 0.00 | 0.00 | 54 | 1010.5 |
| 20260505025904 | 17 | 171 | 1.6 | 4.8 | 0.00 | 0.00 | 0.00 | 54 | 1010.6 |
| 20260505025405 | 17 | 195 | 1.6 | 8.0 | 0.00 | 0.00 | 0.00 | 54 | 1010.6 |
| 20260505024905 | 16 | 204 | 1.6 | 9.7 | 0.00 | 0.00 | 0.00 | 54 | 1010.6 |
| 20260505024408 | 16 | 173 | 1.6 | 9.7 | 0.00 | 0.00 | 0.00 | 55 | 1010.7 |
| 20260505023905 | 16 | 333 | 0.0 | 8.0 | 0.00 | 0.00 | 0.00 | 54 | 1010.7 |
| 20260505023405 | 16 | 186 | 1.6 | 9.7 | 0.00 | 0.00 | 0.00 | 54 | 1010.8 |
| 20260505022907 | 16 | 198 | 0.0 | 3.2 | 0.00 | 0.00 | 0.00 | 57 | 1010.8 |
| 20260505022405 | 16 | 213 | 0.0 | 1.6 | 0.00 | 0.00 | 0.00 | 56 | 1010.7 |
| 20260505021905 | 16 | 202 | 0.0 | 1.6 | 0.00 | 0.00 | 0.00 | 55 | 1010.7 |
| 20260505020905 | 17 | 243 | 0.0 | 1.6 | 0.00 | 0.00 | 0.00 | 54 | 1010.7 |
| 20260505015906 | 17 | 167 | 0.0 | 1.6 | 0.00 | 0.00 | 0.00 | 53 | 1010.7 |
| 20260505015405 | 17 | 170 | 1.6 | 8.0 | 0.00 | 0.00 | 0.00 | 52 | 1010.7 |
| 20260505014906 | 17 | 173 | 1.6 | 4.8 | 0.00 | 0.00 | 0.00 | 52 | 1010.7 |
| 20260505014405 | 17 | 184 | 0.0 | 4.8 | 0.00 | 0.00 | 0.00 | 52 | 1010.7 |
| 20260505013905 | 16 | 190 | 3.2 | 8.0 | 0.00 | 0.00 | 0.00 | 52 | 1010.6 |
| 20260505013405 | 16 | 186 | 0.0 | 4.8 | 0.00 | 0.00 | 0.00 | 55 | 1010.6 |
| 20260505012905 | 16 | 219 | 0.0 | 1.6 | 0.00 | 0.00 | 0.00 | 55 | 1010.7 |
| 20260505012405 | 16 | 180 | 0.0 | 3.2 | 0.00 | 0.00 | 0.00 | 54 | 1010.7 |
| 20260505011905 | 16 | 238 | 0.0 | 0.0 | 0.00 | 0.00 | 0.00 | 54 | 1010.6 |
| 20260505010905 | 17 | 221 | 0.0 | 0.0 | 0.00 | 0.00 | 0.00 | 53 | 1010.4 |
| 20260505010405 | 17 | 221 | 0.0 | 1.6 | 0.00 | 0.00 | 0.00 | 52 | 1010.3 |
| 20260505005905 | 17 | 244 | 0.0 | 1.6 | 0.00 | 0.00 | 0.00 | 52 | 1010.2 |
| 20260505005406 | 17 | 248 | 0.0 | 0.0 | 0.00 | 0.00 | 0.00 | 51 | 1010.2 |
| 20260505004905 | 18 | 248 | 0.0 | 1.6 | 0.00 | 0.00 | 0.00 | 50 | 1010.1 |
| 20260505004406 | 18 | 234 | 0.0 | 3.2 | 0.00 | 0.00 | 0.00 | 49 | 1010.0 |
| 20260505003906 | 18 | 212 | 0.0 | 3.2 | 0.00 | 0.00 | 0.00 | 48 | 1010.0 |
| 20260505003406 | 18 | 190 | 1.6 | 4.8 | 0.00 | 0.00 | 0.00 | 46 | 1010.0 |
| 20260505002905 | 19 | 196 | 0.0 | 4.8 | 0.00 | 0.00 | 0.00 | 46 | 1010.0 |
| 20260505002404 | 19 | 204 | 1.6 | 8.0 | 0.00 | 0.00 | 0.00 | 45 | 1009.9 |
| 20260505001904 | 19 | 211 | 3.2 | 9.7 | 0.00 | 0.00 | 0.00 | 44 | 1009.9 |
| 20260505001404 | 20 | 198 | 0.0 | 9.7 | 0.00 | 0.00 | 0.00 | 44 | 1009.9 |
| 20260505000907 | 20 | 181 | 1.6 | 4.8 | 0.00 | 0.00 | 0.00 | 43 | 1009.9 |
| 20260505000406 | 20 | 202 | 3.2 | 4.8 | 0.00 | 0.00 | 0.00 | 43 | 1009.9 |
| 20260504235904 | 20 | 197 | 1.6 | 8.0 | 0.00 | 0.00 | 0.00 | 42 | 1009.8 |
| 20260504235405 | 20 | 202 | 1.6 | 9.7 | 0.00 | 0.00 | 0.00 | 43 | 1009.8 |
| 20260504234904 | 20 | 216 | 3.2 | 9.7 | 0.00 | 0.00 | 0.00 | 42 | 1009.7 |
| 20260504234406 | 20 | 196 | 3.2 | 8.0 | 0.00 | 0.00 | 0.00 | 42 | 1009.7 |
| 20260504233905 | 20 | 188 | 4.8 | 9.7 | 0.00 | 0.00 | 0.00 | 41 | 1009.6 |
| 20260504233406 | 21 | 231 | 3.2 | 11.3 | 0.00 | 0.00 | 0.00 | 41 | 1009.6 |
| 20260504232904 | 21 | 189 | 3.2 | 9.7 | 0.00 | 0.00 | 0.00 | 41 | 1009.5 |
| 20260504232405 | 21 | 239 | 3.2 | 9.7 | 0.00 | 0.00 | 0.00 | 40 | 1009.5 |
| 20260504231404 | 21 | 227 | 3.2 | 12.9 | 0.00 | 0.00 | 0.00 | 40 | 1009.5 |
| 20260504230404 | 21 | 187 | 6.4 | 12.9 | 0.00 | 0.00 | 0.00 | 39 | 1009.4 |
| 20260504225905 | 21 | 203 | 6.4 | 12.9 | 0.00 | 0.00 | 0.00 | 39 | 1009.3 |
| 20260504225405 | 22 | 201 | 8.0 | 16.1 | 0.00 | 0.00 | 0.00 | 38 | 1009.3 |
| 20260504224407 | 22 | 240 | 4.8 | 14.5 | 0.00 | 0.00 | 0.00 | 39 | 1009.4 |
| 20260504223905 | 22 | 221 | 3.2 | 9.7 | 0.00 | 0.00 | 0.00 | 38 | 1009.5 |
| 20260504223405 | 22 | 183 | 3.2 | 8.0 | 0.00 | 0.00 | 0.00 | 39 | 1009.5 |
| 20260504222904 | 22 | 178 | 8.0 | 14.5 | 0.00 | 0.00 | 0.00 | 39 | 1009.5 |
| 20260504222404 | 22 | 229 | 3.2 | 14.5 | 0.00 | 0.00 | 0.00 | 39 | 1009.5 |
| 20260504221904 | 22 | 219 | 4.8 | 9.7 | 0.00 | 0.00 | 0.00 | 39 | 1009.5 |
| 20260504221407 | 22 | 204 | 4.8 | 12.9 | 0.00 | 0.00 | 0.00 | 39 | 1009.5 |
| 20260504220905 | 22 | 187 | 4.8 | 11.3 | 0.00 | 0.00 | 0.00 | 39 | 1009.5 |
| 20260504220405 | 22 | 224 | 4.8 | 14.5 | 0.00 | 0.00 | 0.00 | 38 | 1009.5 |
| 20260504215905 | 22 | 254 | 8.0 | 16.1 | 0.00 | 0.00 | 0.00 | 39 | 1009.6 |
| 20260504215405 | 22 | 204 | 3.2 | 9.7 | 0.00 | 0.00 | 0.00 | 38 | 1009.6 |
| 20260504214905 | 22 | 171 | 4.8 | 12.9 | 0.00 | 0.00 | 0.00 | 39 | 1009.6 |
| 20260504214404 | 22 | 198 | 4.8 | 14.5 | 0.00 | 0.00 | 0.00 | 39 | 1009.6 |
| 20260504213906 | 22 | 243 | 3.2 | 20.9 | 0.00 | 0.00 | 0.00 | 40 | 1009.6 |
| 20260504213404 | 22 | 196 | 4.8 | 11.3 | 0.00 | 0.00 | 0.00 | 38 | 1009.7 |
| 20260504212907 | 22 | 189 | 4.8 | 16.1 | 0.00 | 0.00 | 0.00 | 39 | 1009.8 |
| 20260504212404 | 22 | 201 | 4.8 | 14.5 | 0.00 | 0.00 | 0.00 | 38 | 1009.8 |
| 20260504211905 | 22 | 254 | 4.8 | 11.3 | 0.00 | 0.00 | 0.00 | 38 | 1009.7 |
| 20260504210406 | 22 | 227 | 4.8 | 14.5 | 0.00 | 0.00 | 0.00 | 38 | 1009.7 |
| 20260504205905 | 22 | 191 | 4.8 | 11.3 | 0.00 | 0.00 | 0.00 | 39 | 1009.7 |
| 20260504205404 | 22 | 264 | 6.4 | 12.9 | 0.00 | 0.00 | 0.00 | 38 | 1009.7 |
| 20260504204905 | 22 | 230 | 6.4 | 14.5 | 0.00 | 0.00 | 0.00 | 38 | 1009.9 |
| 20260504204404 | 22 | 227 | 4.8 | 12.9 | 0.00 | 0.00 | 0.00 | 39 | 1009.9 |
| 20260504203904 | 22 | 219 | 6.4 | 11.3 | 0.00 | 0.00 | 0.00 | 38 | 1009.8 |
| 20260504203405 | 22 | 180 | 3.2 | 14.5 | 0.00 | 0.00 | 0.00 | 38 | 1009.7 |
| 20260504202906 | 22 | 210 | 8.0 | 14.5 | 0.00 | 0.00 | 0.00 | 38 | 1009.7 |
| 20260504202404 | 22 | 208 | 4.8 | 12.9 | 0.00 | 0.00 | 0.00 | 39 | 1009.8 |
| 20260504201905 | 22 | 199 | 4.8 | 11.3 | 0.00 | 0.00 | 0.00 | 38 | 1009.8 |
| 20260504201404 | 22 | 185 | 4.8 | 12.9 | 0.00 | 0.00 | 0.00 | 38 | 1009.9 |
| 20260504200904 | 22 | 230 | 4.8 | 12.9 | 0.00 | 0.00 | 0.00 | 38 | 1009.9 |
| 20260504200404 | 22 | 163 | 4.8 | 14.5 | 0.00 | 0.00 | 0.00 | 38 | 1009.9 |
| 20260504195905 | 22 | 270 | 4.8 | 12.9 | 0.00 | 0.00 | 0.00 | 38 | 1009.9 |
| 20260504195404 | 22 | 238 | 6.4 | 12.9 | 0.00 | 0.00 | 0.00 | 38 | 1010.0 |
| 20260504194905 | 22 | 198 | 8.0 | 12.9 | 0.00 | 0.00 | 0.00 | 39 | 1010.0 |
| 20260504194405 | 22 | 182 | 4.8 | 14.5 | 0.00 | 0.00 | 0.00 | 38 | 1010.0 |
| 20260504193904 | 22 | 212 | 4.8 | 14.5 | 0.00 | 0.00 | 0.00 | 38 | 1010.0 |
| 20260504193406 | 22 | 231 | 6.4 | 14.5 | 0.00 | 0.00 | 0.00 | 38 | 1010.1 |
| 20260504192904 | 22 | 207 | 8.0 | 14.5 | 0.00 | 0.00 | 0.00 | 38 | 1010.1 |
| 20260504192404 | 22 | 193 | 4.8 | 19.3 | 0.00 | 0.00 | 0.00 | 38 | 1010.1 |
| 20260504191904 | 21 | 277 | 4.8 | 9.7 | 0.00 | 0.00 | 0.00 | 38 | 1010.3 |
| 20260504191404 | 21 | 254 | 8.0 | 12.9 | 0.00 | 0.00 | 0.00 | 39 | 1010.4 |
| 20260504190904 | 21 | 172 | 6.4 | 16.1 | 0.00 | 0.00 | 0.00 | 38 | 1010.3 |
| 20260504190404 | 22 | 173 | 8.0 | 14.5 | 0.00 | 0.00 | 0.00 | 40 | 1010.5 |
| 20260504185904 | 21 | 199 | 3.2 | 12.9 | 0.00 | 0.00 | 0.00 | 39 | 1010.5 |
| 20260504184904 | 21 | 299 | 4.8 | 12.9 | 0.00 | 0.00 | 0.00 | 38 | 1010.6 |
| 20260504184405 | 21 | 239 | 4.8 | 14.5 | 0.00 | 0.00 | 0.00 | 39 | 1010.6 |
| 20260504183404 | 21 | 243 | 4.8 | 11.3 | 0.00 | 0.00 | 0.00 | 40 | 1010.8 |
| 20260504182904 | 21 | 207 | 8.0 | 14.5 | 0.00 | 0.00 | 0.00 | 39 | 1010.9 |
| 20260504182404 | 21 | 194 | 6.4 | 16.1 | 0.00 | 0.00 | 0.00 | 39 | 1010.9 |
| 20260504181905 | 20 | 291 | 8.0 | 19.3 | 0.00 | 0.00 | 0.00 | 40 | 1011.1 |
| 20260504181405 | 21 | 187 | 4.8 | 14.5 | 0.00 | 0.00 | 0.00 | 40 | 1011.1 |
| 20260504180405 | 21 | 214 | 4.8 | 12.9 | 0.00 | 0.00 | 0.00 | 39 | 1011.2 |
| 20260504175906 | 21 | 242 | 4.8 | 11.3 | 0.00 | 0.00 | 0.00 | 39 | 1011.3 |
| 20260504175406 | 21 | 265 | 8.0 | 19.3 | 0.00 | 0.00 | 0.00 | 40 | 1011.4 |
| 20260504174405 | 20 | 211 | 8.0 | 19.3 | 0.00 | 0.00 | 0.00 | 40 | 1011.5 |
| 20260504173904 | 20 | 210 | 8.0 | 19.3 | 0.00 | 0.00 | 0.00 | 40 | 1011.6 |
| 20260504173405 | 20 | 201 | 8.0 | 14.5 | 0.00 | 0.00 | 0.00 | 40 | 1011.6 |
| 20260504172904 | 21 | 194 | 6.4 | 12.9 | 0.00 | 0.00 | 0.00 | 41 | 1011.6 |
| 20260504171904 | 20 | 207 | 4.8 | 12.9 | 0.00 | 0.00 | 0.00 | 41 | 1011.7 |
| 20260504171406 | 20 | 204 | 4.8 | 12.9 | 0.00 | 0.00 | 0.00 | 43 | 1011.8 |
| 20260504170906 | 20 | 241 | 8.0 | 12.9 | 0.00 | 0.00 | 0.00 | 41 | 1011.9 |
| 20260504170405 | 20 | 230 | 4.8 | 19.3 | 0.00 | 0.00 | 0.00 | 42 | 1011.9 |
| 20260504160404 | 18 | 201 | 6.4 | 14.5 | 0.00 | 0.00 | 0.00 | 41 | 1012.7 |
| 20260504150903 | 17 | 211 | 6.4 | 12.9 | 0.00 | 0.00 | 0.00 | 45 | 1013.3 |
| 20260504150405 | 17 | 228 | 4.8 | 16.1 | 0.00 | 0.00 | 0.00 | 47 | 1013.3 |
| 20260504140904 | 16 | 191 | 6.4 | 14.5 | 0.00 | 0.00 | 0.00 | 55 | 1013.5 |